Погода в Ноябрьске

Погода в Ноябрьске : погода сейчас, прогноз погоды и архив. Всё, что Вы хотите узнать о погоде в Ноябрьске!

Поиск расширенной информации на нашем сайте:

Другие новости

Новости СМИ2

Главная страница сайта

Новости сайта

03.07.2017

Напоминаем, что на нашем специализированном сайте Метеоцентр.Азия вы можете получить высокодетализированные автоматические прогнозы погоды по пунктам России, СНГ и мира в авиационном формате (включающие направление и скорость ветра, видимость, явления погоды, количество и форму облачности, нижнюю и верхнюю границу облачности).

Рекомендуем: Фирма амапро предлагает хозяйственно бытовые товары оптом.

Погода в Ноябрьске - сегодня

Время (UTC), дата Ветер
(°,м/с) 
Видим.   Явления Облачность Т
(°С)
Тd
(°С)
f(%) Тe
(°С)
Pmin
(гПа)
dP
(гПа)
Po
(мм)
O2
(г/м3)
Тmin Tmax R s Состояние
почвы
03 18.08.17 360 (С) 20000 м    6/3 1000 м средняя 
[Sc|Ac trans]
+11.9 +9.2 84 +13  1023.2  0.4  756  290  +4.5        влажная 
06 18.08.17 270 (З) 20000 м    8/8 1000 м кучево-дожд. 
[Cb cap]
+15.5 +6.7 56 +16  1022.7  -0.4  755  287           
09 18.08.17 280 (З) 20000 м  в посл. час ливневой дождь  8/8 900 м кучево-дожд. 
[Cb cap]
+13.4 +8.6 73 +14  1022.4  -0.4  755  288           
12 18.08.17 270 (З) 20000 м  {ливн. осадки}  6/5 900 м средняя 
[Cu med, cong|Ac trans]
+14.8 +5.5 54 +15  1021  -1.3  754  287           
15 18.08.17 170 (Ю) 20000 м    6/3 1000 м средняя 
[Sc diur, vesp|Ac trans]
+8.5 +8.5 100 +10  1020.6  -0.7  753  293    +15.5  0.7     
18 18.08.17 180 (Ю) 20000 м    8/4 600 м средняя 
[Sc diur, vesp|Ac trans]
+7.7 +7 95 +8  1020  -0.7  753  294           
21 18.08.17 190 (Ю) 20000 м    8/4 600 м средняя 
[Sc|Ac trans]
+8.3 +7.8 97 +8  1018.3  -1.6  752  293           
00 19.08.17 190 (Ю) 20000 м    10/4 600 м средняя 
[Sc|Ac und]
+9.3 +8.2 93 +9  1016.4  -1.8  750  291           
03 19.08.17 220 (ЮЗ) 20000 м  в посл. час ливневой дождь  8/4 300 м кучево-дожд., средняя 
[Cb cap|Ac trans]
+11.6 +10.8 95 +13  1015.5  -0.7  750  288  +7.2         
06 19.08.17 200 (Ю) 20000 м  {ливн. осадки}  8/6 450 м кучево-дожд., средняя 
[Cb cap|Ac trans]
+14.7 +11.8 83 +18  1014.2  -1.1  749  284           
09 19.08.17 210 (ЮЗ) 20000 м  {ливн. осадки}  8/8 800 м кучево-дожд. 
[Cb cap]
+16.9 +12 73 +21  1013.6  -0.5  749  282           
12 19.08.17 320 (СЗ) 20000 м  {ливн. осадки}  8/8 800 м кучево-дожд. 
[Cb cap]
+16.1 +9 63 +16  1014  0.3  749  283           
15 19.08.17 280 (З) 20000 м  {ливн. осадки}  8/8 1000 м кучево-дожд., средняя 
[Cb cap|Ac trans]
+13.8 +10.9 83 +16  1015.1  750  285    +18.2  0.4     
18 19.08.17 320 (СЗ) 20000 м  {ливн. осадки}  8/5 900 м средняя 
[Sc diur, vesp|Ac trans]
+12 +10.2 89 +13  1016.3  750  288           
21 19.08.17 350 (С) 20000 м  в посл. час ливневой дождь  10/6 450 м кучево-дожд., средняя 
[Cb cap|Ac und]
+8.4 +7.6 95 +8  1018.1  1.6  752  292           
00 20.08.17 350 (С) 20000 м  {ливн. осадки}  6/3 1000 м средняя 
[Sc diur, vesp|Ac trans]
+5.1 +4 93 +5  1019.8  1.5  753  297           
03 20.08.17 360 (С) 20000 м    5/0 средняя, верхняя 
[Ac trans|Ci fib]
+8.6 +2.7 66 +8  1020.3  0.7  753  294  +4.9    0.0    влажная 
06 20.08.17 360 (С) 20000 м    8/0 верхняя 
[Ci]
+11.2 +3.6 59 +11  1020.2  753  291           
09 20.08.17 300 (СЗ) 20000 м    10/0 средняя, верхняя 
[Ac trans|Ci]
+14.1 +3.9 50 +15  1019.4  -0.6  753  288           
12 20.08.17 170 (Ю) 20000 м    8/0 средняя, верхняя 
[Ac trans|Ci fib]
+14.2 +5.3 55 +15  1019.1  -0.3  753  287           
15 20.08.17 150 (ЮВ) 20000 м    9/0 средняя, верхняя 
[Ac trans|Ci fib]
+7.9 +6.7 92 +9  1018.9  -0.5  752  293    +15.2       
18 20.08.17 150 (ЮВ) 20000 м    10/5 1500 м средняя, верхняя 
[Sc|Ac trans|Ci fib]
+9.4 +6.5 82 +9  1018.6  -0.3  752  292           
21 20.08.17 110 (В) 10 км  слаб. дождь  10/5 900 м средняя 
[Sc|As op]
+9.7 +9.1 96 +11  1017.6  -0.9  751  291           
00 21.08.17 170 (Ю) н/о    н/о 
+11.1 +10.7 97 +13  1016.7  -0.8  751  289           
03 21.08.17 190 (Ю) 20000 м    10/10 270 м 
[Sc]
+14.2 +13.7 97 +21  1015.5  -1  750  284  +6.2    0.3    влажная 
Время (UTC), дата Ветер
(°,м/с) 
Видим.   Явления Облачность Т
(°С)
Тd
(°С)
f(%) Тe
(°С)
Pmin
(гПа)
dP
(гПа)
Po
(мм)
O2
(г/м3)
Тmin Tmax R s Состояние
почвы

Для получения пояснительной информации подведите курсор к названию столбца.

ПОГОДА в Ноябрьске - архив

Всё, что Вы хотите узнать о погоде в Ноябрьске - удобно и подробно!

Выберите нужную дату (начиная с 1 января 2015* года) и нажмите кнопку "Найти".
Будут отображены архивные сводки погоды по пункту Ноябрьск, начиная с указанной даты.


Отображать данные в формате CSV (для использования в таблицах Excel)


Внимание! Наш архив погоды предназначен исключительно для личного некоммерческого использования в познавательных целях. Если Вам необходимы официальные справки о состоянии погоды (для производственных, юридических, коммерческих и т.п. целей), обращайтесь в органы Росгидромета.

*Примечание: данная дата относится к архиву по метеостанциям СССР (Россия, СНГ, Балтия).
Архив по метеостанциям Зарубежной Европы и Азии (кроме Китая) хранится 10 дней, по другим регионам земного шара (Китай, Африка, Америка, Австралия, Океания) - 1 день.

Ноябрьск - район местоположения метеостанции


Название, широта, долгота, высота метеостанции:
Ноябрьск 63.2°ш. 75.4°д. 120 м над ур. моря [Российская Федерация]

Дополнительная информация

В oтличие oт бoльшинства пoгoдных сайтoв мы публикуем пoдрoбную метеoинфoрмацию в детальнoм прoфессиoнальнoм фoрмате.

Характеристики температуры и влажнoсти вoздуха измеряются на высoте 2 м в тени вдали oт зданий и деревьев.
Скoрoсть ветра измеряется на высoте 10 м (на урoвне рoста челoвека скoрoсть ветра ниже в 1.5-2 раза). Если метеoстанция нахoдится в гoрoде или в лесу, тo скoрoсть ветра занижена на 2-4 м/с пo сравнению с oткрытым местoм. Скoрoсть ветра над акватoриями крупных рек и oзёр, а также на вершинах хoлмoв на 2-5 м/с выше, чем в oбычных услoвиях.
Атмoсфернoе давление в разных тoчках местнoсти мoжет значительнo oтличаться oт давления на метеoстанции, в зависимoсти oт услoвий рельефа (при пoдъёме на 10 м давление пoнижается примернo на 1 мм рт.ст.).